FW5647 Weather Reports


time (UTC)temp
F
wind
direction
speed
knots
gust
knots
rain 1hr
in
rain 24hr
in
rain mn
in
humidity
%
barometer
mb
20260507033100 45 0 0.0 0.0 0.00 0.00 0.00 68 1013.1
20260507031537 45 0 0.0 0.9 0.00 0.00 0.00 65 1013.0
20260507030033 46 0 0.0 0.9 0.00 0.00 0.00 62 1013.2
20260507024533 46 0 0.0 0.0 0.00 0.00 0.00 60 1013.3
20260507023033 47 0 0.0 0.9 0.00 0.00 0.00 60 1013.3
20260507021531 48 0 0.0 1.7 0.00 0.00 0.00 59 1013.2
20260507020037 48 0 0.9 1.7 0.00 0.00 0.00 56 1013.1
20260507014535 48 237 0.0 0.9 0.00 0.00 0.00 58 1012.9
20260507013038 49 0 0.0 0.9 0.00 0.00 0.00 55 1012.9
20260507011541 49 0 0.0 3.5 0.00 0.00 0.00 56 1012.6
20260507010041 49 0 0.0 1.7 0.00 0.00 0.00 56 1012.9
20260507004531 49 0 0.9 2.6 0.00 0.00 0.00 60 1012.7
20260507003034 49 0 0.0 0.0 0.00 0.00 0.00 61 1012.6
20260507001551 50 0 0.0 0.9 0.00 0.00 0.00 58 1012.3
20260507000032 50 0 0.0 1.7 0.00 0.00 0.00 52 1012.5
20260506234546 51 271 0.0 0.9 0.00 0.00 0.00 50 1012.3
20260506233033 51 233 0.0 5.2 0.00 0.00 0.00 50 1012.2
20260506231537 51 326 0.9 3.5 0.00 0.00 0.00 50 1012.2
20260506230035 52 222 0.9 5.2 0.00 0.00 0.00 50 1012.2
20260506224537 52 269 0.9 4.3 0.00 0.00 0.00 51 1012.3
20260506223034 52 41 1.7 3.5 0.00 0.00 0.00 49 1012.3
20260506221534 52 10 2.6 5.2 0.00 0.00 0.00 49 1012.4
20260506220045 52 300 0.9 3.5 0.00 0.00 0.00 50 1012.3
20260506214535 52 295 2.6 6.1 0.00 0.00 0.00 48 1012.2
20260506213034 52 311 3.5 7.0 0.00 0.00 0.00 48 1012.2
20260506211534 52 318 3.5 7.8 0.00 0.00 0.00 49 1012.1
20260506210032 52 286 1.7 5.2 0.00 0.00 0.00 49 1012.2
20260506204536 52 323 2.6 8.7 0.00 0.00 0.00 49 1012.3
20260506203034 52 276 2.6 7.8 0.00 0.00 0.00 48 1012.3
20260506201534 52 308 2.6 7.0 0.00 0.00 0.00 49 1012.1
20260506200036 52 315 2.6 4.3 0.00 0.00 0.00 49 1012.7
20260506194537 51 285 3.5 7.8 0.00 0.00 0.00 50 1012.5
20260506193032 51 301 5.2 9.6 0.00 0.00 0.00 49 1012.5
20260506191537 51 289 5.2 8.7 0.00 0.00 0.00 50 1012.8
20260506190033 50 10 3.5 9.6 0.00 0.00 0.00 50 1012.9
20260506184538 50 294 4.3 8.7 0.00 0.00 0.00 50 1012.3
20260506183038 50 233 1.7 7.8 0.00 0.00 0.00 52 1012.5
20260506181543 50 249 2.6 7.0 0.00 0.00 0.00 51 1012.4
20260506180033 50 90 3.5 7.0 0.00 0.00 0.00 52 1012.5
20260506174531 50 33 4.3 8.7 0.00 0.01 0.00 52 1012.6
20260506173047 49 311 5.2 10.4 0.00 0.01 0.00 52 1013.1
20260506171535 49 246 5.2 9.6 0.00 0.01 0.00 54 1013.2
20260506170036 49 247 3.5 7.8 0.00 0.01 0.00 52 1013.0
20260506164534 49 359 4.3 7.0 0.00 0.07 0.00 57 1013.0
20260506163040 49 230 4.3 7.8 0.00 0.07 0.00 56 1012.9
20260506161537 49 245 5.2 10.4 0.00 0.07 0.00 57 1012.9
20260506160041 49 227 5.2 10.4 0.00 0.07 0.00 56 1012.7
20260506154540 49 20 5.2 9.6 0.00 0.08 0.00 56 1012.7
20260506153035 49 326 4.3 10.4 0.00 0.08 0.00 52 1012.4
20260506151544 49 295 3.5 10.4 0.00 0.08 0.00 55 1012.4
20260506150043 49 302 6.1 11.3 0.00 0.08 0.00 55 1012.4
20260506144545 49 273 3.5 12.2 0.00 0.08 0.00 59 1012.2
20260506143037 49 292 4.3 11.3 0.00 0.08 0.00 59 1012.0
20260506141536 49 297 2.6 10.4 0.00 0.08 0.00 61 1011.9
20260506140037 49 299 5.2 11.3 0.00 0.08 0.00 64 1011.5
20260506134535 48 308 5.2 9.6 0.00 0.08 0.00 62 1011.4
20260506133041 48 32 2.6 8.7 0.00 0.08 0.00 63 1011.5
20260506131552 48 335 1.7 7.0 0.00 0.08 0.00 63 1011.1
20260506130041 47 289 1.7 5.2 0.00 0.08 0.00 65 1010.9
20260506124536 45 273 3.5 5.2 0.00 0.08 0.00 67 1010.9
20260506123034 45 302 2.6 5.2 0.00 0.08 0.00 67 1010.7
20260506121535 44 272 0.9 4.3 0.00 0.08 0.00 70 1010.6
20260506120041 43 300 2.6 4.3 0.00 0.08 0.00 69 1010.2
20260506114540 44 338 0.9 2.6 0.00 0.08 0.00 69 1010.3
20260506113037 43 298 0.9 3.5 0.00 0.08 0.00 69 1010.0
20260506111537 43 0 0.9 2.6 0.00 0.08 0.00 68 1010.0
20260506110034 43 323 0.9 2.6 0.00 0.08 0.00 66 1009.7
20260506104547 44 330 0.9 1.7 0.00 0.08 0.00 66 1009.6
20260506103040 45 0 0.9 2.6 0.00 0.08 0.00 65 1009.4
20260506101540 45 322 0.9 1.7 0.00 0.08 0.00 65 1009.2
20260506100039 45 309 0.0 3.5 0.00 0.08 0.00 63 1009.3
20260506094547 45 353 0.9 2.6 0.00 0.08 0.00 63 1008.7
20260506093039 45 328 0.9 5.2 0.00 0.08 0.00 63 1008.7
20260506091541 46 316 0.0 2.6 0.00 0.08 0.00 64 1008.8
20260506090040 46 0 0.9 3.5 0.00 0.08 0.00 64 1008.7
20260506084543 46 326 0.0 1.7 0.00 0.08 0.00 64 1008.5
20260506083038 46 0 0.0 1.7 0.00 0.08 0.00 65 1008.6
20260506081537 46 323 0.9 3.5 0.00 0.08 0.00 64 1008.5
20260506073041 47 293 0.0 4.3 0.00 0.08 0.00 64 1008.7
20260506071542 47 275 1.7 3.5 0.00 0.08 0.00 62 1008.6
20260506061534 47 311 1.7 7.0 0.00 0.08 0.00 63 1008.7
20260506044535 48 271 1.7 2.6 0.00 0.18 0.00 62 1008.8
20260506043034 48 251 0.9 3.5 0.00 0.18 0.00 61 1008.5
20260506041537 48 255 0.0 2.6 0.00 0.18 0.00 62 1008.5
20260506040038 48 241 0.9 4.3 0.00 0.18 0.00 64 1008.5
20260506034535 48 264 0.0 0.9 0.00 0.18 0.18 63 1008.6